sat.trackr.live / text

‹ back to catalog

QIANFAN-62

NORAD 62792 · 2025-016H

PAYLOAD ACTIVE UNKNOWN

§ Identity

Operator
Country
PRC
Launch date
2025-01-23
Launch site
TAISC
Launch vehicle
Mass (kg)
RCS (m²)

External: N2YO · Heavens-Above · Gunter

§ Orbital elements

Epoch: 2026-05-25T03:02:34.903968Z

Period
106.59 min
Inclination
88.9727°
Eccentricity
0.0014047
Mean motion
13.51010816 rev/d
Perigee alt
1,058.1 km
Apogee alt
1,079.0 km
Semi-major
7,446.7 km
B*
1.6480e-4
RAAN
86.1511°
Arg perigee
226.8550°
Mean anomaly
133.1428°
Rev number
6,929

§ Raw data

QIANFAN-621 62792U 25016H   26145.12679287  .00000118  00000+0  16480-3 0  99912 62792  88.9727  86.1511 0014047 226.8550 133.1428 13.51010816 69299

JSON: /api/v1/satellites/62792 · /tle

For live sub-satellite position, see the globe view (requires WebGL).

§ Visibility from observer

Set your observer location to see the next 7 days of passes ≥ 10°. The values pass through the URL so the page stays shareable.

No JS? Fill the form by hand. The geolocation button needs JavaScript.